Location: Beetenbrück
(52.8113°N, 9.5946°E)
Time: 21:35:37
(UTC+00:00)

Cosmos 1703 Rocket - Pass Details

Date: 14 April 2026
Orbit: 597 x 626 km, 82.5° (Epoch: 12 May)

Event Time Altitude Azimuth Distance (km) Brightness Sun altitude
Rises 18:54:10 0° 348° (NNW) 2,875 7.5 -5.8°
Reaches altitude 10° 18:56:24 10° 348° (NNW) 1,963 6.7 -6.1°
Maximum altitude 19:00:45 86° 261° (W) 610 3.6 -6.7°
Drops below altitude 10° 19:05:02 10° 172° (S) 1,936 5.8 -7.2°
Sets 19:07:13 0° 172° (S) 2,832 6.6 -7.5°
